Date,TemperatureHighF,TemperatureAvgF,TemperatureLowF,DewpointHighF,DewpointAvgF,DewpointLowF,HumidityHigh,HumidityAvg,HumidityLow,PressureMaxIn,PressureMinIn,WindSpeedMaxMPH,WindSpeedAvgMPH,GustSpeedMaxMPH,PrecipitationSumIn
2013-9-1,84,81,77,79,77,75,95,88,78,29.97,29.87,20,8,24,0.00
2013-9-2,85,81,72,80,77,70,95,88,84,29.94,29.84,16,8,21,1.17
2013-9-3,85,79,71,78,75,69,97,89,72,29.96,29.85,18,6,25,1.57
2013-9-4,82,77,70,76,73,69,97,88,78,30.09,29.95,11,4,13,0.00
2013-9-5,84,78,74,78,75,73,97,91,79,30.10,30.03,10,2,13,0.38
2013-9-6,81,77,71,77,72,68,97,87,76,30.11,30.04,29,14,34,0.01
2013-9-7,76,75,71,68,63,60,77,68,58,30.11,30.01,21,12,27,0.00
2013-9-8,81,76,65,71,67,61,88,75,64,30.02,29.92,15,5,18,0.00
2013-9-9,82,78,72,75,73,71,95,85,75,30.17,30.01,14,5,16,0.00
2013-9-10,82,79,75,75,72,66,90,80,60,30.25,30.17,15,7,16,0.00
2013-9-11,82,79,73,74,71,69,88,78,71,30.23,30.11,10,4,12,0.00
2013-9-12,83,78,71,75,72,69,95,84,71,30.11,29.84,14,5,18,0.00
2013-9-13,86,81,78,75,72,67,86,75,56,29.84,29.74,26,6,29,0.00
2013-9-14,78,74,70,70,67,64,84,77,69,30.13,29.83,24,15,26,0.00
2013-9-15,76,73,70,72,66,63,86,77,69,30.24,30.13,20,12,21,0.00
2013-9-16,82,76,70,76,72,67,97,89,77,30.17,30.05,18,3,23,0.13
2013-9-17,74,70,65,67,63,57,87,76,68,30.27,30.14,29,17,35,0.00
2013-9-18,72,68,62,64,60,57,90,75,64,30.26,30.18,20,11,22,0.00
2013-9-19,74,68,61,67,61,56,90,78,65,30.19,30.10,16,6,18,0.00
2013-9-20,75,72,67,67,65,62,89,78,64,30.11,30.00,13,7,15,0.00
2013-9-21,79,74,67,73,70,63,94,86,74,30.00,29.79,10,5,14,0.00
2013-9-22,80,73,69,75,70,63,96,90,80,29.83,29.68,22,9,28,1.92
2013-9-23,70,68,64,64,58,55,85,71,60,30.09,29.84,22,12,30,0.00
2013-9-24,69,65,57,58,55,53,88,72,60,30.11,29.99,20,6,24,0.00
2013-9-25,70,67,61,64,59,55,84,74,66,29.99,29.87,18,8,18,0.00
2013-9-26,75,69,64,67,63,61,91,81,66,29.98,29.86,23,10,27,0.02
2013-9-27,71,69,67,64,61,57,86,76,62,30.12,29.97,28,17,32,0.00
2013-9-28,73,69,66,65,63,60,88,81,66,30.18,30.09,25,16,29,2.07
2013-9-29,74,68,63,67,64,60,94,86,73,30.12,30.00,19,10,21,0.00
2013-9-30,74,66,58,64,61,57,96,82,64,30.08,29.99,13,4,18,0.00